TAIP08 YSNW-YMES

Flight info

Callsign TAIP08
Flight time N/A
Altitude 3500
Route NWA MER ESL
Aircraft EC35/L-VGD/C

Departure

Time 2026-04-22 09:41
Airport Naval Air Station Nowra - HMAS Albatross (YSNW)

Arrival

Time N/A
Airport RAAF Base East Sale (YMES)
Time Latitude Longitude Altitude Speed Heading
2026-04-22 09:35 -34.94750 150.54732 354 ft 0 kts 360°
2026-04-22 09:36 -34.94743 150.54750 370 ft 7 kts 331°
2026-04-22 09:37 -34.94668 150.54615 475 ft 40 kts 285°
2026-04-22 09:37 -34.94467 150.54193 522 ft 67 kts 292°
2026-04-22 09:37 -34.94434 150.54114 548 ft 64 kts 289°
2026-04-22 09:37 -34.94292 150.53581 650 ft 81 kts 272°
2026-04-22 09:38 -34.94474 150.52944 666 ft 86 kts 224°
2026-04-22 09:38 -34.94972 150.52479 652 ft 93 kts 206°
2026-04-22 09:38 -34.95527 150.52139 725 ft 89 kts 203°
2026-04-22 09:38 -34.96110 150.51827 743 ft 87 kts 207°
2026-04-22 09:39 -34.96618 150.51449 820 ft 85 kts 213°
2026-04-22 09:39 -34.97088 150.51044 902 ft 80 kts 212°
2026-04-22 09:39 -34.97679 150.50889 797 ft 92 kts 179°
2026-04-22 09:39 -34.98266 150.51038 831 ft 97 kts 157°
2026-04-22 09:40 -34.98874 150.51048 765 ft 88 kts 181°
2026-04-22 09:40 -34.99496 150.51167 766 ft 93 kts 166°
2026-04-22 09:40 -35.00064 150.51478 890 ft 94 kts 139°
2026-04-22 09:40 -35.00400 150.52203 887 ft 94 kts 122°
2026-04-22 09:41 -35.00768 150.52871 926 ft 95 kts 135°
2026-04-22 09:41 -35.01240 150.53376 1059 ft 91 kts 139°
2026-04-22 09:41 -35.01678 150.53950 1060 ft 95 kts 141°
2026-04-22 09:41 -35.02242 150.54445 983 ft 103 kts 150°
2026-04-22 09:42 -35.02912 150.54829 816 ft 108 kts 158°
2026-04-22 09:42 -35.03619 150.55084 790 ft 104 kts 171°
2026-04-22 09:42 -35.04353 150.55083 671 ft 103 kts 189°
2026-04-22 09:42 -35.05034 150.54813 567 ft 98 kts 201°
2026-04-22 09:43 -35.05622 150.54501 641 ft 87 kts 206°
2026-04-22 09:43 -35.06101 150.54143 752 ft 79 kts 217°
2026-04-22 09:43 -35.06565 150.53740 782 ft 85 kts 211°
2026-04-22 09:43 -35.07063 150.53356 796 ft 87 kts 216°
2026-04-22 09:44 -35.07551 150.52870 782 ft 93 kts 223°
2026-04-22 09:44 -35.08064 150.52343 657 ft 97 kts 211°
2026-04-22 09:44 -35.08682 150.52050 566 ft 104 kts 193°
2026-04-22 09:44 -35.09372 150.51837 503 ft 101 kts 194°
2026-04-22 09:45 -35.10057 150.51591 446 ft 101 kts 194°
2026-04-22 09:45 -35.10729 150.51363 373 ft 100 kts 193°
2026-04-22 09:45 -35.11327 150.51197 399 ft 80 kts 192°
2026-04-22 09:45 -35.11902 150.50996 374 ft 90 kts 198°
2026-04-22 09:46 -35.12462 150.50663 454 ft 87 kts 210°
2026-04-22 09:46 -35.12986 150.50315 477 ft 82 kts 207°
2026-04-22 09:46 -35.13512 150.49962 433 ft 91 kts 205°
2026-04-22 09:46 -35.14071 150.49611 437 ft 89 kts 205°
2026-04-22 09:47 -35.14629 150.49278 570 ft 95 kts 208°
2026-04-22 09:47 -35.15254 150.48801 735 ft 111 kts 206°
2026-04-22 09:47 -35.15934 150.48391 1047 ft 109 kts 205°
2026-04-22 09:47 -35.16631 150.47957 1235 ft 115 kts 205°
2026-04-22 09:48 -35.17370 150.47501 1283 ft 125 kts 199°
2026-04-22 09:48 -35.18184 150.47164 1441 ft 123 kts 195°
2026-04-22 09:48 -35.18923 150.46749 1499 ft 115 kts 201°
2026-04-22 09:48 -35.19657 150.46307 1504 ft 118 kts 201°
2026-04-22 09:49 -35.20392 150.45887 1538 ft 117 kts 199°
2026-04-22 09:49 -35.21136 150.45463 1581 ft 118 kts 203°
2026-04-22 09:49 -35.21871 150.44969 1560 ft 122 kts 207°
2026-04-22 09:49 -35.22707 150.44724 1460 ft 124 kts 180°
2026-04-22 09:50 -35.23492 150.44481 1548 ft 122 kts 193°
2026-04-22 09:50 -35.24322 150.44243 1541 ft 119 kts 192°
2026-04-22 09:50 -35.25057 150.43864 1626 ft 117 kts 200°
2026-04-22 09:50 -35.25857 150.43524 1473 ft 124 kts 197°
2026-04-22 09:51 -35.26656 150.43126 1495 ft 123 kts 201°
2026-04-22 09:51 -35.27397 150.42632 1571 ft 121 kts 206°
2026-04-22 09:51 -35.28185 150.42237 1489 ft 125 kts 194°
2026-04-22 09:51 -35.29000 150.41938 1495 ft 120 kts 199°
2026-04-22 09:52 -35.29771 150.41528 1483 ft 120 kts 201°
2026-04-22 09:52 -35.30532 150.41091 1591 ft 116 kts 209°
2026-04-22 09:52 -35.31237 150.40588 1615 ft 117 kts 211°
2026-04-22 09:52 -35.31943 150.40026 1537 ft 124 kts 205°
2026-04-22 09:53 -35.32646 150.39524 1584 ft 122 kts 207°
2026-04-22 09:53 -35.33409 150.39039 1537 ft 127 kts 198°
2026-04-22 09:53 -35.34315 150.38802 1253 ft 136 kts 187°
2026-04-22 09:53 -35.35222 150.38543 1153 ft 133 kts 193°
2026-04-22 09:54 -35.36087 150.38229 1155 ft 125 kts 194°
2026-04-22 09:54 -35.36934 150.37943 1125 ft 125 kts 198°
2026-04-22 09:54 -35.37689 150.37471 1256 ft 119 kts 210°
2026-04-22 09:54 -35.38447 150.37039 1294 ft 119 kts 197°
2026-04-22 09:55 -35.39257 150.36866 1332 ft 118 kts 191°
2026-04-22 09:55 -35.40071 150.36636 1311 ft 119 kts 196°
2026-04-22 09:55 -35.40846 150.36253 1425 ft 119 kts 203°
2026-04-22 09:55 -35.41558 150.35744 1546 ft 119 kts 211°
2026-04-22 09:56 -35.42126 150.35048 1692 ft 114 kts 227°
2026-04-22 09:56 -35.42784 150.34436 1631 ft 123 kts 208°
2026-04-22 09:56 -35.43518 150.33879 1661 ft 124 kts 210°
2026-04-22 09:56 -35.44258 150.33285 1623 ft 129 kts 212°
2026-04-22 09:57 -35.44985 150.32700 1558 ft 125 kts 213°
2026-04-22 09:57 -35.45699 150.32080 1513 ft 125 kts 208°
2026-04-22 09:57 -35.46417 150.31508 1568 ft 124 kts 212°
2026-04-22 09:57 -35.47135 150.30875 1475 ft 128 kts 212°
2026-04-22 09:58 -35.47805 150.30161 1432 ft 128 kts 224°
2026-04-22 09:58 -35.48446 150.29405 1401 ft 127 kts 219°
2026-04-22 09:58 -35.49084 150.28644 1346 ft 127 kts 222°
2026-04-22 09:58 -35.49785 150.28002 1311 ft 127 kts 204°
2026-04-22 09:59 -35.50615 150.27603 1264 ft 129 kts 199°
2026-04-22 09:59 -35.51434 150.27160 1229 ft 128 kts 204°
2026-04-22 09:59 -35.52218 150.26666 1213 ft 126 kts 205°
2026-04-22 09:59 -35.53010 150.26193 1186 ft 126 kts 204°
2026-04-22 10:00 -35.53804 150.25699 1148 ft 128 kts 204°
2026-04-22 10:00 -35.54568 150.25158 1110 ft 128 kts 211°
2026-04-22 10:00 -35.55364 150.24666 1086 ft 125 kts 201°
2026-04-22 10:00 -35.56171 150.24260 1120 ft 125 kts 201°
2026-04-22 10:01 -35.56981 150.23840 1091 ft 128 kts 199°
2026-04-22 10:01 -35.57755 150.23369 1212 ft 120 kts 212°
2026-04-22 10:01 -35.58382 150.22688 1247 ft 123 kts 224°
2026-04-22 10:01 -35.58906 150.21864 1259 ft 123 kts 233°
2026-04-22 10:02 -35.59376 150.20968 1244 ft 125 kts 231°
2026-04-22 10:02 -35.59899 150.20145 1294 ft 123 kts 226°
2026-04-22 10:02 -35.60512 150.19440 1364 ft 118 kts 210°
2026-04-22 10:02 -35.61269 150.19069 1423 ft 120 kts 195°
2026-04-22 10:03 -35.62115 150.18888 1329 ft 128 kts 185°
2026-04-22 10:03 -35.62988 150.18692 1283 ft 129 kts 193°
2026-04-22 10:03 -35.63844 150.18383 1269 ft 127 kts 197°
2026-04-22 10:03 -35.64647 150.17987 1327 ft 123 kts 201°
2026-04-22 10:04 -35.65420 150.17504 1330 ft 121 kts 204°
2026-04-22 10:04 -35.66197 150.17027 1254 ft 129 kts 205°
2026-04-22 10:04 -35.66973 150.16462 1194 ft 132 kts 211°
2026-04-22 10:04 -35.67759 150.15885 1153 ft 131 kts 206°
2026-04-22 10:05 -35.68563 150.15348 1103 ft 133 kts 205°
2026-04-22 10:05 -35.69401 150.14897 1088 ft 131 kts 200°
2026-04-22 10:05 -35.70281 150.14544 1015 ft 133 kts 196°
2026-04-22 10:05 -35.71145 150.14191 1036 ft 128 kts 197°
2026-04-22 10:06 -35.72000 150.13866 1006 ft 131 kts 194°
2026-04-22 10:06 -35.72867 150.13594 1032 ft 128 kts 191°
2026-04-22 10:06 -35.73728 150.13445 1146 ft 123 kts 183°
2026-04-22 10:06 -35.74580 150.13372 1262 ft 122 kts 185°
2026-04-22 10:07 -35.75435 150.13253 1304 ft 123 kts 185°
2026-04-22 10:07 -35.76301 150.13145 1296 ft 128 kts 185°
2026-04-22 10:07 -35.77185 150.12996 1287 ft 129 kts 188°
2026-04-22 10:07 -35.78079 150.12820 1246 ft 130 kts 190°
2026-04-22 10:08 -35.78981 150.12597 1171 ft 133 kts 192°
2026-04-22 10:08 -35.79885 150.12357 1116 ft 133 kts 189°
2026-04-22 10:08 -35.80796 150.12198 1100 ft 131 kts 184°
2026-04-22 10:08 -35.81694 150.12219 1101 ft 131 kts 174°
2026-04-22 10:09 -35.82607 150.12264 1058 ft 131 kts 179°
2026-04-22 10:09 -35.83521 150.12233 1033 ft 132 kts 179°
2026-04-22 10:09 -35.84430 150.12321 1016 ft 130 kts 174°
2026-04-22 10:09 -35.85346 150.12392 989 ft 131 kts 179°
2026-04-22 10:10 -35.86239 150.12304 1015 ft 128 kts 186°
2026-04-22 10:10 -35.87132 150.12179 948 ft 131 kts 186°
2026-04-22 10:10 -35.88026 150.12073 935 ft 129 kts 175°
2026-04-22 10:10 -35.88908 150.12345 882 ft 132 kts 163°
2026-04-22 10:11 -35.89791 150.12669 830 ft 130 kts 160°
2026-04-22 10:11 -35.90524 150.13248 792 ft 123 kts 122°
2026-04-22 10:11 -35.90547 150.14220 557 ft 118 kts 53°
2026-04-22 10:11 -35.89935 150.14698 397 ft 96 kts
2026-04-22 10:12 -35.89440 150.14654 297 ft 57 kts 284°
2026-04-22 10:12 -35.89695 150.14483 166 ft 57 kts 169°
2026-04-22 10:12 -35.90010 150.14523 68 ft 33 kts 189°
2026-04-22 10:12 -35.90152 150.14502 40 ft 13 kts 189°
2026-04-22 10:13 -35.90235 150.14565 43 ft 16 kts 131°
2026-04-22 10:13 -35.90271 150.14612 32 ft 0 kts 128°
2026-04-22 10:13 -35.90271 150.14614 32 ft 1 kts 180°
2026-04-22 10:15 -35.90271 150.14612 32 ft 1 kts 136°
2026-04-22 10:15 -35.90270 150.14611 32 ft 1 kts 130°
2026-04-22 10:15 -35.90271 150.14609 32 ft 1 kts 215°
2026-04-22 10:16 -35.90269 150.14610 32 ft 1 kts 111°
2026-04-22 10:16 -35.90270 150.14610 32 ft 0 kts 162°
2026-04-22 10:16 -35.90271 150.14609 32 ft 0 kts 223°
2026-04-22 10:16 -35.90270 150.14608 32 ft 0 kts 301°
2026-04-22 10:17 -35.90269 150.14609 33 ft 0 kts 23°
2026-04-22 10:17 -35.90270 150.14602 32 ft 0 kts 21°
2026-04-22 10:18 -35.90267 150.14610 34 ft 1 kts 19°
2026-04-22 10:19 -35.90241 150.14665 61 ft 38 kts 171°
2026-04-22 10:19 -35.90256 150.14688 38 ft 0 kts
2026-04-22 10:19 -35.90256 150.14683 35 ft 0 kts 24°
2026-04-22 10:20 -35.90255 150.14684 32 ft 0 kts 43°
2026-04-22 10:20 -35.90252 150.14685 31 ft 0 kts 62°
2026-04-22 10:20 -35.90252 150.14684 35 ft 0 kts 98°
2026-04-22 10:21 -35.90255 150.14684 45 ft 4 kts 175°
2026-04-22 10:21 -35.90215 150.14721 42 ft 35 kts 220°
2026-04-22 10:21 -35.90158 150.14654 125 ft 33 kts 348°
2026-04-22 10:21 -35.90138 150.14678 92 ft 45 kts 40°
2026-04-22 10:22 -35.90140 150.14723 35 ft 48 kts 282°
2026-04-22 10:22 -35.90094 150.14752 32 ft 0 kts 116°
2026-04-22 10:24 -35.90094 150.14744 85 ft 2 kts 115°
2026-04-22 10:24 -35.90082 150.14755 42 ft 7 kts 338°
2026-04-22 10:24 -35.90080 150.14750 32 ft 0 kts 350°